Regional Weather Roundup
Issued by NWS

Home | Current Version | Previous Version | Text Only | Print | Product List | Glossary On
Versions: 1 2 3 4 5 6 7 8 9 10 11 12 13 14 15 16 17 18 19 20 21 22 23 24 25 26 27 28 29 30 31 32 33 34 35 36 37 38 39 40 41 42 43 44 45 46 47 48 49 50
000
ASUS43 KTOP 192108
RWRKS

WEATHER ROUNDUP FOR KANSAS
NATIONAL WEATHER SERVICE GOODLAND KS
300 PM CST SUN FEB 19 2017

NOTE:  "FAIR" INDICATES FEW OR NO CLOUDS BELOW 12,000 FEET WITH NO
SIGNIFICANT WEATHER AND/OR OBSTRUCTIONS TO VISIBILITY.

KSZ001>006-013>018-027>032-041>047-192200-
NORTHWEST KANSAS

CITY           SKY/WX    TMP DP  RH WIND       PRES   REMARKS
GOODLAND       SUNNY     66  43  43 S25G35    29.66F
HAYS           SUNNY     71  49  45 S18       29.73F
HILL CITY      SUNNY     77  44  30 S21G32    29.70F
RUSSELL        MOSUNNY   70  50  49 S22G28    29.74F
$$

KSZ061>065-074>080-084>089-192200-
SOUTHWEST KANSAS

CITY           SKY/WX    TMP DP  RH WIND       PRES   REMARKS
DODGE CITY     SUNNY     70  50  49 S31G38    29.74F
ELKHART          N/A     63  40  43 S10         N/A
GARDEN CITY    SUNNY     74  48  39 S31G40    29.71F
GREAT BEND     SUNNY     68  51  54 S20       29.77F
LIBERAL        SUNNY     73  50  43 S21G26    29.74S
PRATT          CLOUDY    57  51  80 S18G24    29.81S
$$

KSZ066>073-081>083-090>101-192200-
SOUTHEAST KANSAS

CITY           SKY/WX    TMP DP  RH WIND       PRES   REMARKS
CHANUTE        SUNNY     72  55  55 S13       29.90F
COFFEYVILLE    MOSUNNY   70  58  65 S12       29.90F
HUTCHINSON     PTSUNNY   61  53  75 S17       29.82F
MEDICINE LODGE   N/A     61  55  81 S18       29.81F
NEWTON         PTSUNNY   62  54  74 S16       29.85F
PARSONS        MOSUNNY   70  57  63 S9G18     29.91F
WICHITA INTL   CLOUDY    62  55  77 S16       29.85F
WICHITA JABRA  CLOUDY    62  55  77 SE15      29.85F HAZE
WICHITA MCCONL PTSUNNY   63  54  73 S16       29.85F
WINFIELD       CLOUDY    65  56  72 S14       29.88F
$$

KSZ007>012-019>026-033>040-048>060-102>105-192200-
NORTHEAST KANSAS

CITY           SKY/WX    TMP DP  RH WIND       PRES   REMARKS
CONCORDIA      MOSUNNY   61  51  70 SE17      29.81F
EMPORIA        CLOUDY    60  54  80 S13       29.89F
LAWRENCE       SUNNY     73  57  57 S15       29.88F
MANHATTAN      CLOUDY    63  52  67 S12       29.86F
MARYSVILLE     MOSUNNY   64  54  68 S16G23    29.83F
OLATHE IND     SUNNY     73  55  53 S15       29.89F
OLATHE EXE     MOSUNNY   72  56  57 S18       29.89F
SALINA         MOSUNNY   65  52  62 S18       29.83S
TOPEKA BILLARD PTSUNNY   65  55  70 S14       29.88S
TOPEKA FORBES  CLOUDY    63  55  75 S15G25    29.88F
$$




USA.gov is the U.S. government's official web portal to all federal, state and local government web resources and services.